Berlin Schoenefeld, Germany

11:11 PM CEST on August 23, 2017 (GMT +0200)
Schonefeld

Weather History for EDDB - June, 2017

Change the Weather History Date:

Monday, June 19, 2017

  Actual Average Record
Temperature  
Mean Temperature 73 °F -  
Max Temperature 87 °F - - ()
Min Temperature 59 °F - - ()
Cooling Degree Days 8    
Growing Degree Days 23 (Base 50)    
Moisture  
Dew Point 57 °F    
Average Humidity 58    
Maximum Humidity 94    
Minimum Humidity 26    
Precipitation  
Precipitation 0.00 in - - ()
Sea Level Pressure  
Sea Level Pressure 30.14 in    
Wind  
Wind Speed 3 mph ()    
Max Wind Speed 8 mph    
Max Gust Speed -    
Visibility 6.2 miles    
Events Fog    
T = Trace of Precipitation, MM = Missing Value Source: Averaged Metar Reports

Daily Weather History Graph

Daily Weather History Graph

Search for Another Location

Airport or City:

Trip Planner

Search our weather history database for the weather conditions in past years. The results will help you decide how hot, cold, wet, or windy it might be!

Date:

Astronomy

Jun. 19, 2017 Rise Set
Actual Time 4:43 AM CEST 9:31 PM CEST
Civil Twilight 3:53 AM CEST 10:21 PM CEST
Nautical Twilight 2:31 AM CEST 11:43 PM CEST
Astronomical Twilight Sun does not set Sun does not set
Moon 2:10 AM CEST (6/19) 3:20 PM CEST (6/19)
Length of Visible Light 18h 28m
Length of Day
16h 48m
Waning Crescent, 29% of the Moon is Illuminated
Jun 19
Waning Crescent
Jun 24
New
Jul 1
First Quarter
Jul 9
Full
Jul 16
Last Quarter

Hourly Weather History & Observations

Time (CEST) Temp. Heat Index Dew Point Humidity Pressure Visibility Wind Dir Wind Speed Gust Speed Precip Events Conditions
12:20 AM 66.2 °F - 59.0 °F 78% 30.21 in - Variable 2.3 mph - N/A   Clear
12:50 AM 64.4 °F - 59.0 °F 83% 30.21 in - SW 2.3 mph - N/A   Clear
1:20 AM 62.6 °F - 59.0 °F 88% 30.21 in - South 1.2 mph - N/A   Clear
1:50 AM 62.6 °F - 59.0 °F 88% 30.21 in - South 1.2 mph - N/A   Clear
2:00 AM 64 °F - 58 °F 74% 30.23 in 25 mi NE 4.5 mph - -  
2:20 AM 60.8 °F - 57.2 °F 88% 30.21 in - South 3.5 mph - N/A   Clear
2:50 AM 62.6 °F - 57.2 °F 82% 30.21 in - South 1.2 mph - N/A   Clear
3:20 AM 60.8 °F - 59.0 °F 94% 30.21 in 6.2 mi Calm Calm - N/A Fog Shallow Fog
3:50 AM 60.8 °F - 57.2 °F 88% 30.21 in 6.2 mi South 2.3 mph - N/A Fog Shallow Fog
4:20 AM 59.0 °F - 57.2 °F 94% 30.21 in 6.2 mi SSE 2.3 mph - N/A Fog Shallow Fog
4:50 AM 59.0 °F - 57.2 °F 94% 30.21 in 6.2 mi South 2.3 mph - N/A Fog Shallow Fog
5:20 AM 59.0 °F - 57.2 °F 94% 30.21 in 6.2 mi SSW 2.3 mph - N/A Fog Shallow Fog
5:50 AM 60.8 °F - 59.0 °F 94% 30.21 in 6.2 mi South 1.2 mph - N/A Fog Shallow Fog
6:20 AM 62.6 °F - 59.0 °F 88% 30.21 in - Variable 1.2 mph - N/A   Clear
6:50 AM 66.2 °F - 60.8 °F 83% 30.21 in - Variable 1.2 mph - N/A   Clear
7:20 AM 68.0 °F - 60.8 °F 78% 30.21 in - Variable 1.2 mph - N/A   Clear
7:50 AM 71.6 °F - 60.8 °F 69% 30.21 in - SSE 3.5 mph - N/A   Clear
8:20 AM 71.6 °F - 60.8 °F 69% 30.21 in - SSE 3.5 mph - N/A   Clear
8:50 AM 75.2 °F - 62.6 °F 65% 30.21 in 6.2 mi Variable 3.5 mph - N/A   Partly Cloudy
9:20 AM 75.2 °F - 59.0 °F 57% 30.21 in 6.2 mi Variable 2.3 mph - N/A   Partly Cloudy
9:50 AM 77.0 °F - 59.0 °F 54% 30.21 in 6.2 mi Variable 4.6 mph - N/A   Scattered Clouds
10:20 AM 77.0 °F - 60.8 °F 57% 30.21 in 6.2 mi West 3.5 mph - N/A   Scattered Clouds
10:50 AM 77.0 °F - 60.8 °F 57% 30.21 in 6.2 mi Variable 4.6 mph - N/A   Scattered Clouds
11:20 AM 77.0 °F - 57.2 °F 50% 30.18 in 6.2 mi Variable 3.5 mph - N/A   Scattered Clouds
11:50 AM 78.8 °F - 57.2 °F 47% 30.18 in 6.2 mi Variable 4.6 mph - N/A   Scattered Clouds
12:20 PM 82.4 °F 82.9 °F 60.8 °F 48% 30.18 in 6.2 mi Variable 5.8 mph - N/A   Scattered Clouds
12:50 PM 82.4 °F 82.0 °F 57.2 °F 42% 30.18 in - WSW 6.9 mph - N/A   Clear
1:20 PM 82.4 °F 81.7 °F 55.4 °F 39% 30.15 in - Variable 3.5 mph - N/A   Clear
1:50 PM 84.2 °F 83.0 °F 55.4 °F 37% 30.15 in - Variable 6.9 mph - N/A   Clear
2:20 PM 84.2 °F 82.8 °F 53.6 °F 35% 30.15 in - Variable 3.5 mph - N/A   Clear
2:50 PM 82.4 °F 81.7 °F 55.4 °F 39% 30.12 in - WSW 8.1 mph - N/A   Clear
3:20 PM 86.0 °F 84.5 °F 55.4 °F 35% 30.12 in - Variable 6.9 mph - N/A   Clear
3:50 PM 86.0 °F 84.2 °F 53.6 °F 33% 30.09 in - Variable 5.8 mph - N/A   Clear
4:20 PM 86.0 °F 84.2 °F 53.6 °F 33% 30.09 in - Variable 3.5 mph - N/A   Clear
4:50 PM 84.2 °F 83.0 °F 55.4 °F 37% 30.09 in - Variable 5.8 mph - N/A   Clear
5:20 PM 86.0 °F 84.2 °F 53.6 °F 33% 30.06 in - South 4.6 mph - N/A   Clear
5:50 PM 86.0 °F 84.2 °F 53.6 °F 33% 30.06 in - SW 8.1 mph - N/A   Clear
6:20 PM 86.0 °F 84.5 °F 55.4 °F 35% 30.06 in - SW 5.8 mph - N/A   Clear
6:50 PM 86.0 °F 84.5 °F 55.4 °F 35% 30.04 in - SW 5.8 mph - N/A   Clear
7:20 PM 86.0 °F 84.2 °F 53.6 °F 33% 30.04 in - Variable 2.3 mph - N/A   Clear
7:50 PM 84.2 °F 83.0 °F 55.4 °F 37% 30.04 in - SSW 4.6 mph - N/A   Clear
8:00 PM 85 °F - 55 °F 26% 30.04 in 31 mi West 6.7 mph - -   Scattered Clouds
8:20 PM 82.4 °F 82.0 °F 57.2 °F 42% 30.04 in - WSW 3.5 mph - N/A   Clear
8:50 PM 82.4 °F 82.0 °F 57.2 °F 42% 30.04 in - SW 3.5 mph - N/A   Clear
9:20 PM 78.8 °F - 57.2 °F 47% 30.04 in - SW 3.5 mph - N/A   Clear
9:50 PM 78.8 °F - 57.2 °F 47% 30.04 in - SSE 3.5 mph - N/A   Clear
10:20 PM 77.0 °F - 57.2 °F 50% 30.04 in - SSE 3.5 mph - N/A   Clear
10:50 PM 75.2 °F - 57.2 °F 53% 30.04 in - South 2.3 mph - N/A   Clear
11:20 PM 75.2 °F - 57.2 °F 53% 30.04 in - South 2.3 mph - N/A   Clear
11:50 PM 73.4 °F - 57.2 °F 57% 30.01 in - South 1.2 mph - N/A   Clear